Regional Weather Roundup
Issued by NWS Green Bay, WI

Home | Current Version | Previous Version | Text Only | Print | Product List | Glossary On
Versions: 1 2 3 4 5 6 7 8 9 10 11 12 13 14 15 16 17 18 19 20 21 22 23 24 25 26 27 28 29 30 31 32 33 34 35 36 37 38 39 40 41 42 43 44 45 46 47 48 49 50
000
ASUS43 KGRB 090500
RWRGRB

NORTH-CENTRAL AND NORTHEAST WISCONSIN REGIONAL WEATHER ROUNDUP
NATIONAL WEATHER SERVICE GREEN BAY WI
1100 PM CST THU DEC 08 2016

WIZ005-009-010>012-018-019-090600-
NORTH CENTRAL WISCONSIN

CITY           SKY/WX    TMP DP  RH WIND       PRES   REMARKS
IRONWOOD       LGT SNOW  19  14  81 N12       30.34R WCI   7
MANITOWISH WTR NOT AVBL
ARBOR VITAE    NOT AVBL
EAGLE RIVER    NOT AVBL
LAND O LAKES   NOT AVBL
RHINELANDER    CLOUDY    19  15  84 W8        30.29R WCI   9
PHILLIPS       FLURRIES  18  14  84 NW6       30.33R
ANTIGO         NOT AVBL
TOMAHAWK       NOT AVBL
MERRILL        NOT AVBL
$$

WIZ013-073-090600-
NORTHEAST WISCONSIN

CITY           SKY/WX    TMP DP  RH WIND       PRES   REMARKS
IRON MOUNTAIN  LGT SNOW  20  13  74 NW9       30.27R WCI   9
MARINETTE      PTCLDY    23  17  78 VRB5      30.31R
$$

WIZ017-030-035>037-045-090600-
CENTRAL WISCONSIN

CITY           SKY/WX    TMP DP  RH WIND       PRES   REMARKS
MEDFORD        NOT AVBL
WAUSAU         CLEAR     19  12  74 W12       30.33R WCI   7
MOSINEE        NOT AVBL
MARSHFIELD     CLEAR     19  11  70 W10       30.35R WCI   7
WISC RAPIDS    PTCLDY    22  15  75 NW9       30.39R
STEVENS POINT  NOT AVBL
WAUPACA        NOT AVBL
SHAWANO        NOT AVBL
CLINTONVILLE   NOT AVBL
WAUTOMA        FLURRIES  22  16  78 W7        30.39R
$$

WIZ038-039-048-051-090600-
FOX VALLEY

CITY           SKY/WX    TMP DP  RH WIND       PRES   REMARKS
NWS GREEN BAY  CLEAR     23  18  81 W8        30.34R
APPLETON       PTCLDY    21  12  68 NW12      30.32R WCI   9
OSHKOSH        CLEAR     22  14  71 W10       30.35R
FOND DU LAC    CLOUDY    23  14  68 NW12      30.36R
$$

WIZ022-050-052-090600-
EAST CENTRAL WISCONSIN

CITY           SKY/WX    TMP DP  RH WIND       PRES   REMARKS
EPHRAIM        NOT AVBL
WASHINGTON ISL NOT AVBL
STURGEON BAY   MOCLDY    26  18  71 NW16      30.30R
MANITOWOC      NOT AVBL
SHEBOYGAN      PTCLDY    23  16  74 NW12      30.33R
$$

LMZ563-521-522-541>543-090600-
LAKESHORE

STATION/POSITION TIME  TEMP    WIND        PRES    VSBY  WAVE
                       AIR SEA DIR/SP/G                  HT/PER
                 (UTC) (F)     (DEG/KT/KT) (MB)    (MI)  (FT/S)
SHEBOYGAN LKSHOR 0400   25     290/ 17/ 21 1027.2R
KEWAUNEE LKSHORE 0430   24     310/  6/ 11 1025.5R
ALGOMA MARINA    0351          320/ 11/ 17   N/A
NORTHPORT PIER   0440   29     310/ 20/ 28 1024.7R
SISTER BAY LKSHO 0420   28     330/ 25/ 30   N/A
CHAMBERS ISLAND  0440   26     300/  8/ 12 1025.1R
MENOMINEE LKSHOR 0430   24     280/  9/ 11 1025.1R
$$




USA.gov is the U.S. government's official web portal to all federal, state and local government web resources and services.